Simultaneous Nadir Overpasses (SNOs) Predictions

Prediction of SNOs between AQUA and METOP-C Satellite Orbit:

Table of predicted SNOs for the next 14.0 days since TLE Epoch: 4/17/2021
Index Date (AQUA) Time (AQUA) Lat,Lon (AQUA) SZA (AQUA ) Date (METOP-C) Time (METOP-C) Lat,Lon (METOP-C) SZA (METOP-C ) Distance(km) Time Diff (sec)
1 04/17/2021 18:05:12 73.58, -96.55 62.82 04/17/2021 18:04:00 73.53, -97.06 62.79 17.00 72
2 04/17/2021 18:54:40 -73.72, 70.78 117.05 04/17/2021 18:54:37 -73.72, 70.71 117.04 2.18 3
3 04/17/2021 19:44:09 73.79,-121.72 63.01 04/17/2021 19:45:16 73.81,-121.75 63.03 2.83 67
4 04/20/2021 13:39:28 73.69, -30.35 61.96 04/20/2021 13:38:18 73.70, -30.27 61.97 2.84 70
5 04/20/2021 14:28:54 -73.72, 137.23 118.03 04/20/2021 14:28:58 -73.75, 137.17 118.00 3.34 4
6 04/20/2021 15:18:24 73.84, -55.40 62.09 04/20/2021 15:19:37 73.83, -55.30 62.07 3.43 73
7 04/23/2021 09:13:43 73.70, 36.07 61.02 04/23/2021 09:12:41 73.67, 36.06 60.99 3.60 62
8 04/23/2021 10:03:10 -73.78,-156.46 118.92 04/23/2021 10:03:20 -73.77,-156.37 118.93 2.84 10
9 04/23/2021 10:52:44 74.11, 10.42 61.43 04/23/2021 10:53:54 74.09, 11.75 61.37 40.30 70
10 04/26/2021 04:47:57 73.67, 102.58 60.06 04/26/2021 04:47:03 73.68, 102.50 60.08 2.94 54
11 04/26/2021 05:37:24 -73.74, -89.93 119.88 04/26/2021 05:37:43 -73.74, -90.04 119.88 3.28 19
12 04/26/2021 06:27:04 74.39, 76.22 60.81 04/26/2021 06:28:10 74.40, 78.93 60.74 81.37 66
13 04/29/2021 00:22:11 73.69, 168.96 59.19 04/29/2021 00:21:24 73.70, 168.93 59.20 0.74 47
14 04/29/2021 01:11:38 -73.76, -23.54 120.75 04/29/2021 01:12:04 -73.76, -23.59 120.75 1.66 26



Historial Predications of SNOs between AQUA and METOP-C
